Погода в Надыме

Погода в Надыме : погода сейчас, прогноз погоды и архив. Всё, что Вы хотите узнать о погоде в Надыме!

Поиск расширенной информации на нашем сайте:

Другие новости

Новости СМИ2

Главная страница сайта

Новости сайта

03.07.2017

Напоминаем, что на нашем специализированном сайте Метеоцентр.Азия вы можете получить высокодетализированные автоматические прогнозы погоды по пунктам России, СНГ и мира в авиационном формате (включающие направление и скорость ветра, видимость, явления погоды, количество и форму облачности, нижнюю и верхнюю границу облачности).

Рекомендуем: полезная сауна турецкая цена любовная

Погода в Надыме - сегодня

Время (UTC), дата Ветер
(°,м/с) 
Видим.   Явления Облачность Т
(°С)
Тd
(°С)
f(%) Тe
(°С)
Pmin
(гПа)
dP
(гПа)
Po
(мм)
O2
(г/м3)
Тmin Tmax R s Состояние
почвы
00 16.10.18 170 (Ю) 10 км    10/8 <0100 м верхняя 
[St|Ci fib]
-2.1 -3.6 89 -5  1013.5  -2.2  759  309           
03 16.10.18 170 (Ю) 4{11}  10 км    10/0 средняя, верхняя 
[Ac trans|Ci fib]
-3 -5.4 83 -6  1010.7  -2.8  757  309  -3    0.0  равномерный
сухой снег
100% 
12 16.10.18 180 (Ю) 4{13}  1000 м  ливневой снег  10/10 210 м кучево-дожд. 
[Cb cap]
-1.2 -2 94 -4  1000.1  -2.8  749  303           
15 16.10.18 190 (Ю) 4-10{13}  4000 м  слаб. ливневой снег  10/10 300 м кучево-дожд. 
[Cb cap]
-0.9 -1.5 96 -3  998.1  -2.1  747  302    -0.9     
21 16.10.18 210 (ЮЗ) 10 км    10/10 210 м 
[St]
+0.7 -0.4 92 -2  994.1  -2.1  744  299           
03 17.10.18 210 (ЮЗ) 3{12}  10 км    10/10 360 м кучево-дожд. 
[Cb cap]
+0.6 -1 89 -1  992  -0.4  743  299  -0.9    0.3  равномерный
мокрый или
старый снег
100% 
12 17.10.18 220 (ЮЗ) 10 км  {ливн. осадки}  6/6 600 м 
[Sc]
-0.3 -1.3 93 995.3  1.5  745  301           
15 17.10.18 250 (З) 10 км    10/10 840 м 
[Sc]
-0.2 -1.4 92 997  1.6  746  301    +1.5  0.0     
03 18.10.18 310 (СЗ) 10 км  слаб. ливневой снег  10/10 240 м кучево-дожд. 
[Cb cap]
+0 -0.9 94 -1  1004.8  752  303  -0.8    0.6  равномерный
мокрый или
старый снег
100% 
09 18.10.18 310 (СЗ) 10 км    10/10 450 м 
[Sc]
+0.4 -2.4 81 1008  1.3  755  304           
12 18.10.18 310 (СЗ) 10 км  {снег}  9/9 1000 м 
[Sc]
-0.4 -3.4 80 -1  1009.3  1.2  756  305           
15 18.10.18 270 (З) 10 км    3/3 1000 м 
[Sc]
-3.2 -4.6 90 -3  1009.8  0.5  756  309    +0.6  0.0     
18 18.10.18 тихо ()   10 км    10/10 600 м 
[Sc]
-4 -4.7 95 -4  1009.7  -0.2  756  310           
21 18.10.18 тихо ()   10 км    10/10 1000 м 
[Sc]
-3.5 -4.7 91 -4  1009.3  -0.3  756  309           
00 19.10.18 тихо ()   10 км    10/10 1000 м 
[Sc]
-3.5 -4.5 93 -4  1009.3  0.1  756  309           
03 19.10.18 тихо ()   10 км    9/9 1000 м 
[Sc]
-3.9 -4.9 93 -4  1008.9  -0.4  755  309  -4.4      равномерный
мокрый или
старый снег
100% 
06 19.10.18 290 (З) 10 км    9/9 1000 м 
[Sc]
-1.2 -3.6 84 -1  1008.7  -0.2  755  306           
09 19.10.18 тихо ()   10 км    9/9 1000 м 
[Sc]
-0.8 -3.7 81 -1  1008.4  -0.3  755  306           
12 19.10.18 240 (ЮЗ) 10 км    9/0 средняя 
[Ac trans]
-2.4 -4.7 84 -2  1008.5  0.1  755  307           
15 19.10.18 тихо ()   10 км  слаб. снег  10/6 300 м средняя 
[Sc|Ac und]
-3.7 -4.6 93 -4  1008.2  -0.3  755  309    -0.6       
18 19.10.18 тихо ()   10 км  слаб. снег  10/10 300 м 
[Sc]
-3.3 -4.6 91 -3  1007.6  -0.6  754  308           
21 19.10.18 тихо ()   10 км  {снег}  10/10 1000 м 
[Sc]
-3.6 -4.7 92 -4  1007.2  -0.4  754  308           
00 20.10.18 тихо ()   10 км  {снег}  10/10 1000 м 
[Sc]
-3.9 -4.6 95 -4  1006.6  -0.6  754  309           
03 20.10.18 060 (СВ) 10 км    10/10 1000 м 
[Sc]
-3.7 -4.5 94 -3  1006.5  0.1  754  308  -4    0.0  равномерный
сухой снег
100% 
06 20.10.18 040 (СВ) 10 км    10/10 150 м 
[Sc]
-2.5 -4 89 -2  1006.1  -0.4  753  307           
Время (UTC), дата Ветер
(°,м/с) 
Видим.   Явления Облачность Т
(°С)
Тd
(°С)
f(%) Тe
(°С)
Pmin
(гПа)
dP
(гПа)
Po
(мм)
O2
(г/м3)
Тmin Tmax R s Состояние
почвы

Для получения пояснительной информации подведите курсор к названию столбца.

ПОГОДА в Надыме - архив

Всё, что Вы хотите узнать о погоде в Надыме - удобно и подробно!

Выберите нужную дату (начиная с 1 января 2015* года) и нажмите кнопку "Найти".
Будут отображены архивные сводки погоды по пункту Надым, начиная с указанной даты.


Отображать данные в формате CSV (для использования в таблицах Excel)


Внимание! Наш архив погоды предназначен исключительно для личного некоммерческого использования в познавательных целях. Если Вам необходимы официальные справки о состоянии погоды (для производственных, юридических, коммерческих и т.п. целей), обращайтесь в органы Росгидромета.

*Примечание: данная дата относится к архиву по метеостанциям СССР (Россия, СНГ, Балтия).
Архив по метеостанциям Зарубежной Европы и Азии (кроме Китая) хранится 10 дней, по другим регионам земного шара (Китай, Африка, Америка, Австралия, Океания) - 1 день.

Надым - район местоположения метеостанции


Название, широта, долгота, высота метеостанции:
Надым 65.6°ш. 72.7°д. 12 м над ур. моря [Российская Федерация]

Дополнительная информация

В oтличие oт бoльшинства пoгoдных сайтoв мы публикуем пoдрoбную метеoинфoрмацию в детальнoм прoфессиoнальнoм фoрмате.

Характеристики температуры и влажнoсти вoздуха измеряются на высoте 2 м в тени вдали oт зданий и деревьев.
Скoрoсть ветра измеряется на высoте 10 м (на урoвне рoста челoвека скoрoсть ветра ниже в 1.5-2 раза). Если метеoстанция нахoдится в гoрoде или в лесу, тo скoрoсть ветра занижена на 2-4 м/с пo сравнению с oткрытым местoм. Скoрoсть ветра над акватoриями крупных рек и oзёр, а также на вершинах хoлмoв на 2-5 м/с выше, чем в oбычных услoвиях.
Атмoсфернoе давление в разных тoчках местнoсти мoжет значительнo oтличаться oт давления на метеoстанции, в зависимoсти oт услoвий рельефа (при пoдъёме на 10 м давление пoнижается примернo на 1 мм рт.ст.).